Location: ????????
(55.7667°N, 37.4833°E)
Time: 04:11:09
(UTC+00:00)

COSMOS 2455 - Pass Details

Date: 19 May 2025
Orbit: 899 x 909 km, 67.1° (Epoch: 19 June)

Event Time Altitude Azimuth Distance (km) Brightness Sun altitude
Rises 23:33:04 0° 316° (NW) 3,546 6.2 -9.7°
Reaches altitude 10° 23:35:35 10° 317° (NW) 2,602 5.5 -9.5°
Maximum altitude 23:41:39 89° 43° (NE) 917 2.9 -9.0°
Drops below altitude 10° 23:47:41 10° 139° (SE) 2,592 5.1 -8.6°
Sets 23:50:11 0° 139° (SE) 3,530 5.8 -8.4°
